Home   Weather   Hagen   Past weeks

Flag for Germany Past Weather in Hagen, North Rhine-Westphalia, Germany — Yesterday and Last 2 Weeks

Now
36 °F

Passing clouds.


Feels Like: 32 °F
Forecast: 34 / 44 °F
Wind: 5 mph from West

Location: Dortmund / Wickede

Current Time: Feb 24, 2017 at 10:42:34 pm

Latest Report: Feb 24, 2017 at 9:50 pm


Visibility: N/A

Pressure: 30.07 "Hg

Humidity: 75%

Dew Point: 28 °F

Location of HagenLocation

Past Weather in Hagen — Graph

°F

Hagen Temperature Yesterday

Maximum temperature yesterday: 48 °F (at 3:50 pm)
Minimum temperature yesterday: 43 °F (at 6:50 pm)
Average temperature yesterday: 46 °F

High & Low Weather Summary for the Past Weeks

 TemperatureHumidityPressure
High61 °F (Feb 15, 2:50 pm)94% (Feb 20, 9:50 pm)30.51 "Hg (Feb 20, 9:50 pm)
Low27 °F (Feb 10, 5:20 am)29% (Feb 15, 2:50 pm)29.18 "Hg (Feb 23, 4:56 pm)
Average41 °F74%30.11 "Hg
* Reported Feb 9 9:20 pm — Feb 24 9:20 pm, Hagen, Weather by CustomWeather, © 2017

Note: Actual official high and low records may vary slightly from our data, if they occured in-between our weather recording intervals... More about our weather records

Advertising

Hagen Weather History for the Previous 24 Hours

Scroll right to see more
 ConditionsComfort  
Time TempWeatherWind HumidityBarometerVisibility
9:20 pm
Fri, Feb 24
36 °FClear.3 mph70%30.07 "Hg10 mi
8:50 pm36 °FClear.3 mph70%30.07 "Hg10 mi
8:20 pm37 °FPassing clouds.5 mph65%30.07 "HgN/A
7:50 pm37 °FClear.3 mph70%30.04 "Hg10 mi
7:20 pm39 °FPassing clouds.3 mph65%30.04 "HgN/A
6:50 pm37 °FPassing clouds.3 mph70%30.01 "HgN/A
6:20 pm39 °FClear.3 mph61%29.98 "Hg10 mi
5:50 pm41 °FPassing clouds.8 mph57%29.98 "HgN/A
5:20 pm41 °FPassing clouds.6 mph57%29.95 "HgN/A
4:50 pm43 °FPassing clouds.7 mph49%29.95 "HgN/A
4:20 pm41 °FPassing clouds.8 mph57%29.95 "HgN/A
3:50 pm43 °FPassing clouds.9 mph49%29.92 "HgN/A
3:20 pm45 °FPassing clouds.10 mph46%29.92 "HgN/A
2:50 pm43 °FPassing clouds.9 mph49%29.92 "HgN/A
2:20 pm41 °FPassing clouds.8 mph57%29.92 "HgN/A
1:50 pm41 °FPassing clouds.10 mph53%29.89 "HgN/A
1:20 pm43 °FScattered clouds.7 mph53%29.89 "HgN/A
12:50 pm43 °FPassing clouds.7 mph57%29.89 "HgN/A
12:20 pm41 °FScattered clouds.10 mph61%29.89 "HgN/A
11:50 am41 °FScattered clouds.9 mph66%29.89 "HgN/A
11:20 am41 °FScattered clouds.10 mph66%29.86 "HgN/A
10:50 am39 °FPassing clouds.10 mph70%29.86 "HgN/A
10:20 am39 °FScattered clouds.10 mph70%29.83 "HgN/A
9:50 am37 °FPassing clouds.10 mph75%29.83 "HgN/A
9:20 am37 °FPassing clouds.12 mph75%29.80 "HgN/A
8:50 am37 °FScattered clouds.13 mph81%29.77 "HgN/A
8:20 am37 °FPartly sunny.14 mph81%29.74 "HgN/A
7:50 am36 °FSunny.14 mph81%29.74 "Hg10 mi
7:20 am36 °FClear.12 mph81%29.71 "Hg10 mi
6:50 am36 °FPassing clouds.14 mph81%29.68 "HgN/A
6:20 am37 °FPassing clouds.13 mph75%29.68 "HgN/A
5:50 am37 °FPassing clouds.13 mph75%29.65 "HgN/A
5:20 am37 °FPassing clouds.16 mph75%29.62 "HgN/A
Weather by CustomWeather, © 2017

See weather overviewHow to use our weather pages